[[{"header":{"parameterUnit":"m.s-1","parameterCategory":1,"la1":30.2991,"la2":30.254,"lo1":-89.0895,"lo2":-89.0444,"dy":0.0017,"dx":0.0017,"nx":28,"ny":28,"refTime":"2024-05-19T03:00:00:Z","depth":0,"parameterNumber":2,"parameterNumberName":"U-component_of_WINDS"},"data":[0,0,0,0,0,0,0,0,0,0,0,0,0,0,0,0,0,0,0,0,0,0,0,0,0,0,0,0,0,0,0,0,0,0,0,0,0,0,0,0,0,0,0,0,0,0,0,0,0,0,0,0,0,0,0,0,0,0,-0.6148,-0.6147,0,-0.6123,-0.6123,-0.6122,-0.6107,-0.6107,-0.6107,-0.6107,-0.6081,-0.6081,-0.608,0,0,0,0,0,0,0,0,0,0,0,0,0,-0.6182,-0.6181,-0.6148,-0.6147,-0.6147,-0.6123,-0.6123,-0.6122,-0.6107,-0.6107,-0.6107,-0.6107,-0.6082,-0.6081,-0.608,0,0,0,0,0,0,0,0,0,0,0,0,0,-0.6163,-0.6181,-0.6148,-0.6137,-0.6135,-0.6123,-0.6123,-0.6122,-0.6107,-0.6107,-0.6107,-0.6107,-0.6082,-0.6081,-0.608,-0.6076,0,0,-0.6077,-0.6077,0,0,0,0,0,0,0,0,-0.6164,-0.6162,-0.6139,-0.6137,-0.6136,-0.6118,-0.6125,-0.6107,-0.6107,-0.6118,-0.6107,-0.6107,-0.6094,-0.6092,-0.6087,-0.6075,-0.6074,-0.6077,-0.6077,-0.6076,-0.6076,0,0,0,0,0,0,0,-0.6166,-0.6163,-0.6138,-0.6138,-0.6137,-0.6133,-0.613,-0.6122,-0.6107,-0.6117,-0.6116,-0.6113,-0.6093,-0.6088,-0.6087,-0.6074,-0.6077,-0.6076,-0.6076,-0.6075,-0.6058,-0.6058,0,0,0,0,0,0,-0.6169,-0.6164,-0.6139,-0.6137,-0.615,-0.6132,-0.6129,-0.6124,-0.6107,-0.6104,-0.6113,-0.6113,-0.609,-0.6088,-0.6086,-0.608,-0.6076,-0.6075,-0.6075,-0.6058,-0.6058,-0.6058,0,0,0,0,0,0,-0.6169,-0.6166,-0.614,-0.615,-0.6147,-0.6132,-0.6126,-0.6123,-0.6119,-0.6104,-0.6101,-0.6111,-0.609,-0.6087,-0.6079,-0.6079,-0.6075,-0.6074,-0.6058,-0.6058,-0.6058,-0.607,0,0,0,0,0,0,-0.617,-0.6167,-0.6165,-0.615,-0.6146,-0.6133,-0.6126,-0.6123,-0.6117,-0.6116,-0.6101,-0.6099,-0.6089,-0.608,-0.6078,-0.6078,-0.6073,-0.6057,-0.6058,-0.6058,-0.607,-0.6071,-0.6072,0,0,0,0,0,-0.6172,-0.617,-0.6165,-0.6162,-0.6144,-0.6133,-0.6131,-0.612,-0.6117,-0.6116,-0.6106,-0.6099,-0.608,-0.608,-0.6077,-0.6077,-0.6057,-0.6058,-0.6058,-0.6069,-0.607,-0.6072,0,0,0,0,0,0,-0.6185,-0.6167,-0.6162,-0.6155,-0.6146,-0.6131,-0.6128,-0.6122,-0.6113,-0.6112,-0.6099,-0.6096,-0.609,-0.6082,-0.6083,-0.6072,-0.6068,-0.6067,-0.6077,-0.6078,-0.6079,-0.6081,-0.6073,0,0,0,0,0,-0.6187,-0.618,-0.6165,-0.616,-0.6156,-0.6143,-0.6138,-0.6131,-0.6121,-0.6116,-0.6106,-0.6097,-0.6088,-0.6083,-0.6074,-0.6069,-0.6065,-0.6067,-0.6068,-0.6069,-0.6069,-0.6065,-0.6066,-0.6059,-0.6059,-0.6059,0,0,-0.6191,-0.6181,-0.6177,-0.6163,-0.6155,-0.6148,-0.614,-0.6133,-0.6128,-0.6115,-0.6107,-0.6099,-0.6088,-0.6081,-0.6077,-0.6074,-0.607,-0.6069,-0.607,-0.6069,-0.6065,-0.6066,-0.6067,-0.6059,-0.6059,-0.6059,0,0,-0.6196,-0.6187,-0.6182,-0.6174,-0.6162,-0.6154,-0.6153,-0.6138,-0.6133,-0.6125,-0.6115,-0.6109,-0.6095,-0.6087,-0.6081,-0.6083,-0.6076,-0.608,-0.6085,-0.6082,-0.6082,-0.6083,-0.6084,-0.6084,-0.608,-0.608,-0.608,0,-0.6203,-0.6192,-0.6181,-0.6174,-0.6168,-0.6157,-0.6152,-0.6145,-0.6131,-0.6127,-0.6124,-0.6106,-0.6097,-0.6089,-0.6089,-0.6085,-0.6083,-0.6082,-0.6083,-0.6084,-0.6084,-0.6084,-0.6085,-0.6081,-0.6081,-0.608,-0.608,0,-0.6201,-0.6194,-0.6191,-0.6178,-0.6171,-0.6166,-0.6154,-0.6149,-0.6142,-0.6134,-0.6126,-0.6115,-0.6104,-0.6102,-0.6095,-0.6092,-0.6091,-0.6086,-0.6081,-0.6085,-0.6086,-0.6086,-0.6081,-0.6081,-0.6081,-0.6081,0,0,-0.6213,-0.6193,-0.6193,-0.6186,-0.6172,-0.6166,-0.616,-0.615,-0.6146,-0.6137,-0.6131,-0.612,-0.6115,-0.6109,-0.6101,-0.6098,-0.61,-0.6094,-0.6093,-0.6095,-0.6096,-0.61,-0.6101,-0.6096,-0.6096,-0.6096,-0.6097,0,-0.6215,-0.6203,-0.6193,-0.6186,-0.6179,-0.6168,-0.6163,-0.6154,-0.6146,-0.6139,-0.6131,-0.6123,-0.6117,-0.6113,-0.611,-0.6101,-0.61,-0.6101,-0.6091,-0.609,-0.6094,-0.6101,-0.6105,-0.6107,-0.6098,-0.6098,-0.6098,0,-0.6216,-0.6207,-0.6199,-0.6186,-0.6182,-0.6178,-0.6168,-0.6161,-0.6151,-0.6145,-0.6138,-0.613,-0.6123,-0.6119,-0.6109,-0.611,-0.6105,-0.61,-0.61,-0.6099,-0.6094,-0.61,-0.6107,-0.6108,-0.6098,-0.6098,-0.6098,0,-0.6226,-0.6212,-0.6205,-0.62,-0.6184,-0.6181,-0.6175,-0.6164,-0.6158,-0.615,-0.6146,-0.6136,-0.6131,-0.6124,-0.6113,-0.6111,-0.6105,-0.61,-0.61,-0.6101,-0.6099,-0.61,-0.6106,-0.6096,-0.6096,-0.6096,-0.6096,0,-0.6229,-0.6225,-0.6209,-0.6205,-0.6199,-0.6188,-0.6183,-0.6175,-0.6166,-0.616,-0.615,-0.6145,-0.6132,-0.6125,-0.6117,-0.611,-0.6108,-0.6103,-0.6101,-0.6104,-0.6105,-0.6101,-0.6101,-0.6096,-0.6096,-0.6096,-0.6096,0,-0.6239,-0.6228,-0.622,-0.6206,-0.6203,-0.6199,-0.6187,-0.6183,-0.6175,-0.6167,-0.6165,-0.6152,-0.6144,-0.6133,-0.6121,-0.6115,-0.611,-0.6106,-0.6113,-0.6112,-0.6113,-0.6113,-0.6118,-0.6118,-0.6108,-0.6108,-0.6108,0,-0.6242,-0.6238,-0.6224,-0.6219,-0.6213,-0.6206,-0.62,-0.6189,-0.6183,-0.6171,-0.6168,-0.6159,-0.6151,-0.6138,-0.6128,-0.6118,-0.6115,-0.6117,-0.6113,-0.6117,-0.6115,-0.6115,-0.6115,-0.6118,-0.6118,-0.6118,-0.6118,0,-0.6249,-0.6244,-0.6236,-0.6226,-0.622,-0.6212,-0.6203,-0.62,-0.6187,-0.6182,-0.6173,-0.6167,-0.6155,-0.6146,-0.6135,-0.6128,-0.6121,-0.612,-0.6119,-0.6122,-0.6127,-0.6124,-0.6116,-0.612,-0.6119,-0.6119,-0.6119,-0.6119,-0.6255,-0.6251,-0.6241,-0.6232,-0.6225,-0.6217,-0.6213,-0.6204,-0.6196,-0.6186,-0.618,-0.6171,-0.6161,-0.6146,-0.6139,-0.6133,-0.613,-0.6129,-0.6129,-0.6129,-0.613,-0.6128,-0.6131,-0.6131,-0.6131,-0.613,-0.613,0,-0.6261,-0.6254,-0.6247,-0.6235,-0.6229,-0.6223,-0.6213,-0.6208,-0.6201,-0.6192,-0.6184,-0.6174,-0.6166,-0.6155,-0.6145,-0.6142,-0.6139,-0.614,-0.614,-0.6139,-0.6133,-0.6134,-0.6143,-0.6143,-0.6143,-0.6143,-0.6143,-0.6143,-0.6264,-0.6257,-0.6251,-0.6241,-0.6233,-0.6225,-0.622,-0.6213,-0.6206,-0.6195,-0.6188,-0.6181,-0.6171,-0.6161,-0.6153,-0.615,-0.6147,-0.6149,-0.6145,-0.614,-0.6139,-0.6138,-0.6139,-0.6148,-0.6148,-0.6151,-0.6151,-0.6151]},{"header":{"parameterUnit":"m.s-1","parameterCategory":1,"la1":30.2991,"la2":30.254,"lo1":-89.0895,"lo2":-89.0444,"dy":0.0017,"dx":0.0017,"nx":28,"ny":28,"refTime":"2024-05-19T03:00:00:Z","depth":0,"parameterNumber":3,"parameterNumberName":"V-component_of_WINDS"},"data":[0,0,0,0,0,0,0,0,0,0,0,0,0,0,0,0,0,0,0,0,0,0,0,0,0,0,0,0,0,0,0,0,0,0,0,0,0,0,0,0,0,0,0,0,0,0,0,0,0,0,0,0,0,0,0,0,0,0,2.5931,2.593,0,2.5879,2.5879,2.5878,2.5818,2.5817,2.5816,2.5815,2.576,2.576,2.5759,0,0,0,0,0,0,0,0,0,0,0,0,0,2.5974,2.5974,2.5931,2.593,2.5929,2.588,2.5879,2.5878,2.5818,2.5817,2.5815,2.5814,2.5761,2.576,2.5759,0,0,0,0,0,0,0,0,0,0,0,0,0,2.5942,2.5973,2.5931,2.5893,2.5889,2.588,2.5879,2.5878,2.5818,2.5817,2.5815,2.5814,2.5761,2.576,2.5759,2.5782,0,0,2.5757,2.5756,0,0,0,0,0,0,0,0,2.5944,2.5941,2.5899,2.5896,2.5891,2.5853,2.5874,2.5846,2.5818,2.5845,2.5815,2.5813,2.5792,2.5789,2.5782,2.5779,2.5777,2.5756,2.5756,2.5756,2.5755,0,0,0,0,0,0,0,2.5946,2.5943,2.591,2.5899,2.5894,2.5878,2.5872,2.5868,2.5827,2.5843,2.5838,2.5833,2.579,2.5783,2.5781,2.5776,2.5756,2.5756,2.5755,2.5755,2.5788,2.5789,0,0,0,0,0,0,2.5955,2.5945,2.5912,2.5909,2.5915,2.5879,2.5872,2.5867,2.5827,2.582,2.5834,2.583,2.5785,2.5782,2.5778,2.5802,2.5756,2.5755,2.5754,2.5787,2.5788,2.579,0,0,0,0,0,0,2.5956,2.5952,2.5914,2.5926,2.592,2.5879,2.5874,2.5867,2.586,2.5821,2.5813,2.5835,2.5784,2.578,2.5781,2.5799,2.5754,2.5754,2.5785,2.5787,2.5789,2.5849,0,0,0,0,0,0,2.5957,2.5953,2.5962,2.5926,2.5919,2.5919,2.5876,2.5867,2.5859,2.5853,2.5819,2.5812,2.5783,2.5783,2.578,2.5797,2.5753,2.5783,2.5786,2.5788,2.5846,2.5853,2.586,0,0,0,0,0,2.5959,2.598,2.5962,2.5959,2.5929,2.592,2.5916,2.5882,2.5861,2.5869,2.5843,2.5813,2.5798,2.5784,2.578,2.5797,2.5782,2.5785,2.5788,2.5842,2.5852,2.586,0,0,0,0,0,0,2.6018,2.5975,2.5955,2.5965,2.5947,2.591,2.5919,2.5893,2.5879,2.5875,2.5832,2.5825,2.5832,2.5814,2.58,2.5816,2.5785,2.5788,2.5828,2.5836,2.5843,2.5847,2.5752,0,0,0,0,0,2.6033,2.6029,2.5991,2.6004,2.5996,2.5959,2.5954,2.5929,2.5908,2.59,2.5874,2.5855,2.5845,2.5839,2.5828,2.5843,2.5834,2.5852,2.5859,2.5865,2.5868,2.5874,2.5882,2.58,2.58,2.58,0,0,2.6062,2.6038,2.6038,2.6015,2.5998,2.5995,2.5953,2.5951,2.5948,2.5899,2.59,2.588,2.5855,2.5863,2.5865,2.5849,2.5889,2.587,2.5875,2.5874,2.5878,2.5886,2.5893,2.5802,2.5802,2.5802,0,0,2.6114,2.6096,2.6105,2.6088,2.6063,2.6038,2.6041,2.6007,2.5993,2.5993,2.5956,2.5951,2.5935,2.5919,2.5909,2.5955,2.5927,2.5952,2.5989,2.5995,2.6002,2.6007,2.6023,2.603,2.5955,2.5955,2.5955,0,2.6154,2.6148,2.6112,2.6113,2.6104,2.606,2.6068,2.6054,2.6026,2.602,2.6002,2.5982,2.5962,2.5965,2.5977,2.597,2.597,2.5956,2.6004,2.6009,2.6014,2.6028,2.6035,2.5958,2.5958,2.5958,2.5957,0,2.6198,2.6195,2.6205,2.618,2.6172,2.6176,2.614,2.6136,2.6112,2.609,2.6089,2.6064,2.6047,2.6046,2.6022,2.6046,2.6036,2.6012,2.598,2.6025,2.6039,2.6044,2.5963,2.5962,2.5961,2.596,0,0,2.6286,2.6241,2.6246,2.6234,2.6202,2.6199,2.6201,2.6185,2.6182,2.6165,2.6165,2.6153,2.613,2.6118,2.6092,2.6098,2.6136,2.6072,2.6071,2.6085,2.616,2.6179,2.6186,2.6117,2.6118,2.6118,2.6162,0,2.6333,2.6335,2.6302,2.6313,2.6309,2.6267,2.6269,2.625,2.6228,2.6221,2.6197,2.6189,2.616,2.6152,2.6156,2.613,2.615,2.6127,2.6116,2.6116,2.6124,2.6193,2.6213,2.6255,2.6167,2.6168,2.6168,0,2.6387,2.6373,2.6384,2.6352,2.6349,2.6352,2.6334,2.6328,2.6305,2.6289,2.6277,2.6247,2.6246,2.6216,2.6214,2.6199,2.6193,2.6179,2.618,2.6178,2.6145,2.6192,2.6267,2.6274,2.6176,2.6175,2.6175,0,2.6451,2.6434,2.6438,2.6429,2.6392,2.6395,2.638,2.6355,2.6348,2.6332,2.6327,2.6311,2.6303,2.6291,2.6258,2.6239,2.626,2.6227,2.6246,2.6247,2.6252,2.6252,2.6327,2.6248,2.6248,2.6248,2.6248,0,2.6506,2.6514,2.6466,2.6469,2.6477,2.6439,2.6447,2.6427,2.6406,2.6404,2.6366,2.6364,2.6321,2.6314,2.6288,2.629,2.6286,2.6273,2.6266,2.6276,2.6278,2.6272,2.6268,2.625,2.6249,2.6249,2.6249,0,2.6578,2.6546,2.6548,2.6513,2.6504,2.6512,2.6481,2.6482,2.6458,2.6455,2.6452,2.6415,2.6405,2.6371,2.6352,2.6334,2.6345,2.6331,2.6353,2.6348,2.6369,2.6368,2.6443,2.6451,2.6367,2.6368,2.6369,0,2.6615,2.6621,2.6586,2.6582,2.6569,2.6563,2.6555,2.6518,2.6511,2.6485,2.6489,2.6476,2.6464,2.645,2.642,2.6405,2.6391,2.6419,2.6389,2.6399,2.6392,2.6392,2.6392,2.6425,2.6426,2.6427,2.6428,0,2.6685,2.6669,2.666,2.6645,2.6637,2.6623,2.6608,2.6606,2.6564,2.6559,2.6548,2.6539,2.652,2.6508,2.6488,2.6471,2.6443,2.6437,2.6441,2.6452,2.6464,2.6458,2.6371,2.6436,2.6435,2.6435,2.6434,2.6434,2.6741,2.6744,2.672,2.6711,2.6695,2.6681,2.668,2.6656,2.6647,2.663,2.6608,2.66,2.6576,2.6547,2.6533,2.6526,2.651,2.6515,2.6516,2.6518,2.6523,2.6466,2.6522,2.6521,2.6521,2.6521,2.6521,0,2.6809,2.6792,2.6783,2.6763,2.6755,2.6729,2.671,2.6706,2.67,2.668,2.6669,2.6657,2.6645,2.6615,2.6599,2.6599,2.6586,2.6596,2.6596,2.6593,2.6538,2.6537,2.6608,2.6608,2.6608,2.6608,2.6608,2.6608,2.6843,2.6847,2.6828,2.6823,2.6805,2.6798,2.6789,2.6776,2.676,2.6749,2.6739,2.6719,2.6695,2.6678,2.6665,2.6656,2.6652,2.6668,2.6655,2.6605,2.6596,2.6589,2.6587,2.6667,2.6667,2.6709,2.671,2.671]}]]